Wind_Gust
16 15 16 16 16 17 17 16 17 17 17 17 17 17 17 17 17 17 17 17 17 17 17 17 17 18 19 19 19 20 15 19 19 13 7 26 14 12 15 6 8 24 18 2 4 5 3 2 3 2 3 4 6 4 7 6 7 5 8 9 8 14 11 11 12 9 5 13 17 16 7 15 10 9 9 11 18 18 15 15 6 15 15 16 21 22 23 21
16 15 15 16 16 16 16 17 17 17 17 18 18 18 18 18 17 18 18 17 17 17 17 17 17 18 19 18 19 19 15 13 20 15 30 17 13 16 12 9 10 15 14 6 8 5 9 5 4 5 8 8 2 7 6 10 10 10 8 9 18 10 15 8 8 7 7 13 15 16 10 7 7 6 4 12 3 9 20 15 12 20 16 19 20 21 23 23
16 17 16 16 16 16 16 17 17 17 17 17 18 18 18 18 18 18 18 18 18 17 17 17 17 18 18 19 19 15 16 15 8 13 16 17 24 17 20 15 12 18 19 9 7 10 10 12 7 7 5 5 4 8 3 11 12 11 9 11 20 10 6 9 7 10 8 14 20 17 14 10 9 5 3 7 7 5 21 21 14 19 23 21 19 21 23 24
17 17 17 16 17 17 16 16 17 17 17 17 17 17 18 18 19 18 18 19 19 19 18 18 18 18 19 19 17 13 9 9 9 7 5 3 12 21 19 17 13 15 5 4 13 11 4 7 6 7 7 4 6 4 7 12 12 8 11 17 15 5 11 14 5 10 15 11 12 12 14 18 11 6 7 11 12 3 5 17 27 27 26 23 23 24 23 23
17 17 16 17 17 17 17 17 17 17 17 17 17 17 17 18 18 18 17 18 17 17 17 17 17 18 18 19 18 8 9 9 5 5 5 8 7 18 17 14 15 11 9 7 9 5 5 4 7 6 6 13 3 2 9 6 8 5 14 14 10 4 10 14 11 12 13 13 11 13 12 19 6 6 8 12 11 13 20 19 20 31 30 31 28 26 24 24
17 17 17 17 17 17 17 17 17 17 17 18 17 17 17 17 17 17 17 17 17 17 16 16 16 17 18 19 11 3 4 8 6 12 6 8 8 17 16 15 15 12 7 9 7 5 7 2 6 9 7 6 6 12 7 6 5 12 11 9 9 9 13 8 10 13 7 14 11 10 9 9 5 3 11 10 14 11 9 13 16 28 30 26 26 27 24 23
17 17 17 17 17 17 17 17 17 17 17 18 18 18 18 18 17 17 17 17 16 16 16 15 15 17 17 14 5 2 4 25 10 14 10 6 9 17 17 14 14 10 6 8 5 11 5 5 6 4 7 5 5 11 10 5 3 8 19 7 11 5 11 13 15 15 14 11 20 19 8 13 13 7 8 11 12 3 10 14 14 13 18 25 26 21 25 24
17 17 17 17 17 18 17 18 18 18 18 18 18 18 17 18 17 17 17 17 16 16 16 15 15 15 13 8 4 5 3 19 20 6 5 10 10 18 17 10 12 9 8 10 10 6 8 8 11 6 5 11 7 7 4 5 4 10 17 9 11 8 12 14 14 15 15 17 18 11 13 20 14 7 4 7 9 15 16 17 16 18 22 18 18 20 19 19
17 18 18 18 18 18 18 18 18 18 18 18 18 17 17 17 17 17 17 16 16 15 15 15 15 12 10 2 4 9 16 12 6 4 8 9 11 12 15 15 7 11 8 6 7 7 10 10 6 8 8 5 10 9 12 4 14 12 18 14 10 11 10 9 7 10 14 15 7 10 15 16 14 5 4 3 3 13 20 18 18 18 19 20 18 20 20 20
18 18 18 19 19 19 19 19 19 19 19 19 18 18 18 18 17 17 17 16 16 15 15 13 12 10 6 4 3 6 15 7 4 8 10 11 12 11 6 5 13 9 9 6 5 9 12 15 12 7 3 6 4 12 1 7 14 5 6 7 11 11 11 8 9 11 10 9 4 10 13 18 6 9 6 2 6 16 19 20 17 19 22 19 19 19 19 22
18 19 19 19 19 20 20 20 20 20 20 20 20 20 19 19 18 18 17 17 16 15 13 11 9 9 3 2 4 13 12 4 1 7 13 13 13 10 12 11 12 15 7 4 12 15 8 8 7 5 4 15 2 8 6 11 4 6 9 8 10 10 11 12 8 14 6 13 9 13 16 17 6 4 12 11 11 17 22 18 19 18 20 21 21 20 18 20
18 19 19 19 19 19 20 20 21 21 21 21 21 20 20 19 19 19 18 17 16 14 12 9 8 7 5 3 9 23 5 4 3 6 9 11 9 14 7 8 12 15 15 12 12 12 12 7 5 4 12 5 4 5 10 5 2 6 2 12 11 11 18 5 10 9 6 13 6 13 9 11 6 7 10 15 18 16 21 23 21 20 17 18 19 17 17 21
18 18 19 19 20 20 20 21 21 21 21 22 21 21 21 21 20 20 19 17 14 12 11 7 6 6 4 9 23 22 12 11 11 7 9 6 6 6 11 7 13 9 16 12 10 13 11 6 6 5 9 6 5 12 9 8 8 3 4 5 12 13 17 12 5 7 4 9 6 10 11 11 14 15 3 12 18 14 13 20 20 18 16 16 15 16 16 17
18 18 19 19 19 20 21 21 22 22 22 23 23 22 22 22 23 22 20 17 14 11 7 4 1 5 5 19 21 9 9 11 9 11 14 7 2 10 7 8 11 11 6 8 6 4 9 7 5 7 4 4 14 4 8 10 5 9 9 4 12 7 18 7 5 3 3 6 6 9 12 14 13 17 5 10 22 23 21 19 20 18 17 17 16 16 17 18
19 19 19 20 21 21 22 22 22 22 23 23 24 24 25 25 23 22 19 14 10 7 5 5 2 5 5 27 12 16 22 8 8 12 10 6 8 8 8 8 11 14 15 9 8 3 8 8 3 5 12 9 12 9 14 8 7 6 9 15 10 9 17 10 10 5 10 8 6 8 9 14 13 17 6 17 21 22 22 20 18 17 17 18 17 18 18 18
20 20 21 21 22 23 23 23 23 23 23 25 25 27 27 26 23 19 15 11 8 5 5 3 7 6 6 29 12 7 7 6 9 19 16 12 12 13 9 11 5 8 5 10 12 5 2 6 9 12 12 5 5 6 5 11 13 9 9 10 13 4 11 18 3 2 8 11 2 10 16 5 11 17 9 15 23 21 22 21 18 17 18 18 18 19 17 18
21 21 22 22 23 23 24 24 24 24 25 25 28 27 26 23 21 13 9 5 4 6 6 5 4 5 7 12 11 10 7 8 6 5 7 17 15 14 5 5 6 9 9 7 2 2 4 5 6 6 5 12 6 5 7 8 14 16 6 8 6 6 9 15 14 9 2 5 8 3 10 10 12 14 6 16 22 20 18 21 19 19 19 20 18 19 19 19
21 22 23 23 24 24 24 24 24 24 25 25 25 23 29 20 10 13 6 6 3 6 3 6 4 3 29 8 10 7 4 5 3 6 13 15 16 12 7 11 6 5 4 4 3 8 7 11 5 13 4 4 6 5 14 22 15 6 4 6 13 5 6 13 11 10 14 3 4 4 4 11 16 16 12 18 21 22 21 22 22 20 18 18 18 17 16 14
21 22 23 23 24 24 24 23 24 25 24 23 23 22 9 8 7 4 10 4 5 4 7 10 9 12 10 6 9 7 8 8 11 6 5 11 9 10 7 5 2 7 4 5 9 7 6 7 4 4 14 11 6 9 16 5 6 3 2 5 4 8 14 15 11 5 4 11 14 8 15 16 16 18 16 12 19 22 23 21 19 19 17 15 16 15 16 13
22 22 23 24 24 23 24 23 23 24 24 19 22 12 4 9 8 7 5 2 10 11 7 10 21 13 21 27 20 5 10 5 8 6 5 9 16 9 7 10 4 4 8 10 4 7 8 11 15 18 8 3 5 8 9 9 5 8 6 5 9 8 18 14 10 4 6 13 10 14 12 12 19 22 20 10 19 19 21 16 15 15 16 16 16 13 14 16
22 23 23 24 24 24 24 22 19 19 23 15 13 7 9 7 8 15 12 15 15 16 18 15 20 22 29 11 13 8 16 7 5 6 6 4 9 15 9 10 6 10 6 8 12 4 5 10 20 11 5 5 7 8 5 4 2 5 8 7 16 7 21 17 13 8 14 11 11 6 6 13 22 23 20 12 20 22 22 21 19 18 19 19 16 17 22 25
22 23 24 24 25 25 25 23 20 21 15 3 4 7 5 5 6 6 6 22 10 19 19 25 17 25 25 23 23 5 7 13 20 18 10 11 9 18 7 13 9 15 3 3 3 6 6 22 11 4 10 6 5 3 4 6 8 4 8 8 9 21 10 17 11 8 6 4 14 9 9 18 25 24 19 13 21 25 28 29 29 24 20 17 18 23 26 23
22 23 24 25 25 26 25 25 22 19 5 5 5 2 8 8 3 7 5 12 26 15 18 21 15 23 32 22 15 11 8 19 21 13 7 9 6 19 11 13 9 8 7 6 13 5 13 14 17 11 3 5 7 6 4 4 3 7 4 6 19 7 8 19 5 5 5 10 13 12 13 23 24 15 16 18 21 13 23 29 27 24 28 24 25 26 28 27
22 23 24 25 26 27 26 25 21 6 3 4 5 10 9 6 6 4 5 12 20 17 19 23 21 17 29 20 17 19 19 16 15 17 9 14 17 8 11 12 8 10 14 9 11 16 20 15 5 9 7 8 10 9 6 7 13 5 8 11 13 7 11 14 16 10 10 9 8 8 9 20 12 13 16 11 8 15 19 19 17 17 13 18 19 19 23 25
22 22 23 25 26 29 28 24 7 3 8 6 8 10 13 10 7 7 4 16 15 25 6 11 15 16 15 10 12 24 12 9 15 12 11 16 11 11 14 11 13 14 10 10 10 14 15 20 5 7 8 7 9 10 12 9 12 9 10 17 13 12 12 16 13 9 15 21 4 5 15 18 12 11 19 7 7 12 16 20 19 14 21 22 22 19 20 19
22 22 22 23 26 28 28 7 5 12 11 7 6 5 10 10 6 6 7 9 17 18 7 8 14 13 19 8 13 12 11 16 15 21 11 16 16 19 11 11 15 13 9 7 13 19 21 9 10 10 8 8 8 14 9 13 13 8 18 14 18 18 17 14 11 4 7 12 8 5 5 24 17 16 9 6 10 9 9 22 17 15 20 22 23 23 21 23
21 21 21 22 22 24 16 6 5 13 2 4 2 9 14 15 7 3 11 13 11 11 4 4 10 15 15 10 20 16 8 19 12 14 13 10 17 9 14 11 6 6 10 9 9 21 11 6 7 6 7 9 8 12 13 17 11 16 12 13 12 12 11 14 12 11 16 7 11 3 10 11 21 16 5 7 13 10 10 8 11 12 16 21 21 21 19 22
21 21 20 21 20 15 8 17 16 9 10 6 9 12 16 13 7 6 12 12 17 5 4 5 11 6 4 13 17 22 8 6 15 14 17 12 11 6 17 10 16 14 8 11 19 9 5 7 8 8 7 8 15 21 10 16 20 21 8 12 10 13 15 12 11 11 8 1 21 10 2 6 11 15 7 3 14 7 7 13 13 15 20 20 21 21 18 19
21 20 20 19 21 21 11 9 5 12 6 6 11 15 17 9 5 10 10 8 10 12 10 12 12 7 5 8 14 12 4 5 5 4 10 9 19 15 18 13 12 11 7 16 21 11 10 11 9 11 11 14 18 18 13 20 13 22 15 6 9 6 7 8 9 6 4 6 16 15 6 9 16 13 11 10 13 6 9 13 14 19 21 21 25 18 19 18
22 20 20 20 17 8 3 3 15 13 9 14 15 17 12 6 10 6 7 11 12 8 7 7 13 19 8 15 13 10 6 7 4 6 14 22 13 4 8 7 12 7 9 3 11 17 14 3 10 10 13 17 13 20 16 20 28 4 6 8 9 4 3 3 5 7 4 8 18 13 6 8 12 9 4 12 8 7 8 8 12 18 17 19 20 20 23 20
23 23 20 17 13 7 6 10 16 12 11 9 12 10 6 16 11 8 4 19 12 10 13 12 19 15 10 7 10 11 8 5 4 12 8 6 6 6 3 5 7 7 4 4 10 13 12 10 10 13 11 14 10 17 8 20 17 8 10 11 5 10 12 4 8 7 9 16 16 14 8 11 14 10 14 7 11 14 22 23 23 22 21 22 21 21 23 20
24 25 23 18 16 11 10 11 3 2 7 9 7 9 12 7 12 12 16 9 13 14 10 18 12 21 21 6 10 9 17 5 5 9 15 15 9 19 11 13 15 11 10 6 14 7 13 13 8 8 9 15 12 9 13 4 8 12 7 8 10 11 9 9 7 9 11 19 12 3 6 7 8 8 8 16 10 10 12 25 25 25 22 22 20 19 20 18
24 26 29 21 14 17 22 23 7 12 12 10 7 9 11 12 10 12 15 12 7 10 13 9 17 21 17 13 7 9 9 9 4 4 8 9 15 16 9 12 10 18 12 7 7 6 17 8 6 12 8 13 11 13 7 4 4 13 13 11 10 9 7 8 10 7 10 13 12 3 5 6 7 8 13 16 13 11 11 9 20 23 22 20 22 18 17 14
26 26 20 7 11 21 13 4 7 3 6 6 8 11 13 8 14 8 4 5 10 10 10 19 29 21 6 8 9 6 7 3 5 7 3 7 9 12 12 7 6 4 12 4 8 11 5 15 15 9 17 9 14 19 18 15 13 18 9 21 17 17 17 11 12 13 12 13 8 6 7 10 3 10 16 13 10 11 13 16 17 19 20 19 17 16 15 13
27 19 9 7 8 15 17 10 2 4 2 8 14 13 12 17 6 6 5 9 10 11 15 19 16 8 12 8 9 8 5 12 3 6 6 9 11 12 14 15 9 8 6 9 9 8 8 17 16 10 7 3 7 8 10 7 7 5 8 14 13 10 14 13 12 7 6 4 4 11 7 3 10 1 12 13 14 15 18 17 17 18 18 17 18 17 15 14
16 8 2 6 5 5 15 12 6 2 6 12 12 7 11 13 5 4 5 5 7 16 22 20 4 6 5 10 11 11 9 6 3 5 6 9 7 11 6 12 21 17 15 20 11 7 3 14 7 12 2 7 13 7 10 10 15 9 7 9 13 12 16 8 5 3 3 11 4 5 4 3 10 7 16 15 15 14 15 17 15 12 15 19 19 17 14 13
10 13 5 4 5 6 12 13 13 7 11 14 10 7 12 10 11 3 8 9 10 9 9 14 15 8 7 13 13 13 14 7 3 6 9 3 7 6 8 5 3 9 9 12 9 7 6 14 9 6 15 14 7 6 2 5 13 14 7 14 5 8 10 16 16 8 6 10 10 6 4 6 7 12 12 13 14 14 9 13 13 11 8 10 12 12 13 14
14 10 7 6 6 13 14 15 12 6 11 10 6 8 6 5 4 5 6 10 10 6 6 3 14 3 7 11 14 7 9 4 6 6 6 4 12 2 3 8 7 5 6 6 12 11 5 14 16 9 10 14 9 3 5 4 2 11 13 6 8 9 7 8 12 5 6 7 7 3 2 4 4 7 5 4 7 9 16 13 12 10 8 11 8 11 12 13
6 5 8 2 8 17 14 14 8 8 9 10 4 2 6 9 5 5 9 9 7 6 6 8 6 7 8 12 8 5 6 6 3 4 7 8 10 4 4 4 4 8 7 11 9 5 4 7 19 8 3 7 7 10 6 11 12 2 4 4 4 12 7 8 15 12 16 6 6 7 6 9 7 7 3 7 4 8 13 11 14 12 14 21 19 18 17 16
5 5 3 4 11 13 14 8 9 10 9 3 6 7 5 6 9 8 11 5 8 4 8 5 4 12 12 11 2 3 6 4 3 5 4 7 9 4 4 4 7 3 6 10 7 2 5 2 11 13 9 5 10 7 4 5 3 8 8 7 5 6 7 9 4 5 12 17 13 14 9 13 10 6 4 6 3 6 11 13 11 11 12 15 16 18 16 18
5 8 6 3 12 13 10 10 7 2 2 5 3 6 4 8 7 7 8 7 9 8 10 8 9 6 8 8 8 3 5 4 3 4 6 4 10 9 9 11 8 7 6 7 6 4 5 5 8 12 12 7 8 6 6 12 11 7 7 5 2 4 9 5 10 3 6 12 14 14 15 10 9 5 3 5 3 4 9 16 16 9 11 14 13 13 13 14
5 6 3 3 11 13 13 4 4 3 4 3 5 7 11 10 8 5 6 6 5 10 6 7 6 7 4 5 4 4 6 6 4 3 3 7 4 3 6 4 6 4 14 14 9 7 7 7 4 8 7 5 5 4 5 16 24 17 15 9 3 5 8 10 7 6 7 5 8 6 14 11 7 5 8 10 12 15 15 12 14 12 14 14 13 14 12 13
6 4 6 5 2 9 9 4 5 6 3 8 6 4 5 7 4 7 6 3 6 5 5 3 6 6 4 4 4 3 5 3 5 6 3 1 4 5 10 4 4 7 6 6 5 5 8 10 7 9 10 7 6 3 7 9 14 11 9 6 9 6 7 12 10 11 14 4 5 4 7 9 2 6 8 11 12 15 15 16 14 15 12 13 11 13 13 15
3 3 8 2 4 7 10 8 5 3 6 7 2 6 5 5 3 7 4 5 5 7 4 4 7 3 4 3 5 5 5 6 6 9 6 4 9 6 7 8 8 5 4 6 11 6 14 9 9 3 6 9 13 14 10 13 14 10 5 7 5 4 5 5 5 4 9 12 12 16 14 11 9 5 4 9 9 17 15 15 12 13 14 14 13 11 12 13
5 3 3 8 11 6 5 9 7 2 3 3 4 8 12 8 4 5 4 5 4 3 4 5 4 4 5 3 5 3 7 5 6 9 3 5 5 6 7 6 6 7 3 4 6 4 10 6 9 11 10 11 11 10 9 4 4 8 5 6 6 14 10 6 5 8 10 5 4 13 10 9 11 10 8 8 12 12 14 17 15 17 14 16 18 17 17 18
5 12 8 6 13 8 5 2 6 6 2 1 5 5 3 9 11 6 2 5 4 4 2 6 4 3 4 6 7 10 9 7 8 5 10 11 10 13 9 8 9 5 6 14 9 7 9 6 7 7 12 13 9 10 8 4 3 8 3 6 7 3 5 11 9 7 10 5 7 7 14 16 16 16 14 12 14 18 18 15 19 18 16 18 17 18 17 16
6 11 8 6 6 10 2 6 1 4 3 5 5 5 5 6 7 10 3 7 7 9 3 7 9 6 6 5 2 4 4 5 9 5 8 5 6 4 9 6 10 12 8 10 9 11 8 9 9 3 7 3 6 3 5 4 4 3 4 4 3 6 6 11 10 4 4 11 6 5 11 24 18 16 16 18 18 16 15 16 16 17 16 16 19 20 19 20
9 4 4 7 10 7 4 5 1 1 1 3 2 2 4 5 7 9 8 5 4 7 5 8 13 8 3 3 4 5 7 4 6 5 6 7 7 11 9 13 13 12 10 7 8 11 8 7 4 2 7 11 12 8 7 10 9 7 11 10 11 7 8 8 2 3 5 8 11 10 10 17 17 13 14 14 15 17 16 16 12 13 20 19 20 23 23 19
6 4 3 3 6 5 7 2 4 2 3 2 3 3 3 3 5 5 2 8 9 8 6 3 7 9 6 6 5 3 1 4 4 4 7 8 6 10 11 6 6 11 10 7 10 6 12 3 2 3 5 13 16 12 8 13 6 11 13 11 10 9 8 9 7 3 7 3 7 14 9 9 9 11 13 14 15 20 18 13 13 14 18 18 22 21 23 16
3 4 2 9 8 4 2 2 2 5 4 6 3 3 3 4 4 7 5 4 5 6 4 5 6 8 4 5 3 5 2 2 3 4 4 6 10 13 10 4 6 6 6 5 4 6 9 6 4 2 6 6 11 9 9 9 7 10 10 14 16 13 7 7 8 6 14 16 14 13 14 10 11 11 14 16 19 19 18 15 14 14 13 16 21 19 22 23
3 4 6 7 8 6 4 4 2 2 5 8 7 4 4 5 2 2 5 2 3 3 4 2 3 6 3 5 2 2 5 5 6 10 8 4 6 6 7 14 3 11 8 3 4 4 8 3 4 4 6 5 10 10 4 5 7 11 11 17 17 15 6 6 7 7 6 14 10 13 10 9 5 13 15 17 19 20 18 13 11 10 11 15 21 21 20 17
2 3 6 9 9 9 5 2 3 7 6 5 4 5 4 4 5 4 7 7 2 3 3 3 3 2 7 8 9 5 6 8 11 12 7 8 10 11 12 15 12 9 3 5 3 7 5 10 6 5 8 3 4 7 8 6 6 7 9 13 12 8 6 6 6 11 8 11 23 15 10 6 8 9 22 16 20 18 17 12 11 10 9 12 18 19 15 14
Wind_Speed
12 12 12 12 13 13 13 13 13 13 13 14 14 13 13 13 14 14 13 13 13 13 13 13 13 14 15 15 15 16 13 10 12 7 4 15 8 8 11 4 6 18 14 1 2 3 2 1 2 1 2 3 2 1 2 2 2 2 1 3 3 7 4 5 5 4 2 4 7 10 5 7 7 4 4 5 12 9 8 8 3 9 10 10 11 15 15 14
12 12 12 12 12 13 13 13 13 14 14 14 14 14 14 14 14 14 14 13 13 13 13 13 13 14 15 14 15 15 10 8 12 11 18 9 9 13 9 5 7 12 9 1 2 3 6 3 3 3 4 2 0 2 3 1 3 3 1 3 8 4 6 4 2 4 2 7 7 9 7 2 4 4 1 5 2 3 10 7 6 11 10 13 13 14 15 16
13 13 13 13 13 13 13 13 13 13 13 14 14 14 14 14 14 15 15 15 14 13 13 14 13 14 15 15 15 12 10 8 4 8 10 14 19 13 15 9 9 15 12 5 4 7 6 8 4 4 1 2 1 3 1 2 5 5 4 4 9 5 3 4 5 6 5 8 12 11 8 5 6 2 1 2 3 2 10 9 6 9 14 14 12 14 13 15
13 13 13 13 13 13 13 13 13 13 13 14 14 14 14 14 15 14 14 14 14 15 14 14 14 14 15 15 14 8 5 5 3 3 2 2 10 16 15 13 10 11 4 3 9 6 2 4 5 4 2 1 1 1 1 4 3 2 4 6 5 2 5 6 2 7 10 7 5 7 9 10 6 2 3 6 6 1 3 8 16 15 17 16 16 16 13 15
13 13 13 13 13 13 13 13 13 13 13 13 14 14 14 14 14 14 13 14 13 13 13 13 13 14 15 15 15 4 3 4 0 2 3 6 5 14 13 12 12 7 5 4 6 3 3 3 4 2 2 3 1 0 3 2 2 2 8 9 4 2 5 9 5 9 9 9 5 7 7 10 1 1 5 8 5 6 9 12 9 19 17 20 19 17 14 16
13 13 13 13 13 13 13 13 13 13 13 14 14 14 14 14 13 14 13 13 13 13 13 12 13 14 15 15 7 1 1 1 1 5 3 6 6 12 12 12 12 7 4 6 4 3 5 0 4 3 0 2 4 5 2 2 2 4 4 5 5 5 7 4 5 8 5 6 7 6 6 4 2 1 4 6 7 5 2 4 10 16 20 16 16 17 16 16
13 13 13 13 13 13 13 13 13 14 14 14 14 14 14 14 14 13 13 13 13 13 12 12 12 13 14 12 2 0 2 8 5 8 9 4 7 12 13 11 10 7 4 4 3 4 3 3 3 2 3 1 2 2 6 2 1 4 7 3 5 3 7 8 8 10 9 7 11 8 6 7 8 3 3 4 6 2 6 8 9 9 11 15 15 14 17 16
13 13 13 13 13 14 13 14 14 14 14 14 14 14 14 14 14 14 13 13 12 13 12 12 12 12 11 4 1 1 0 8 12 4 3 8 8 12 12 6 9 6 5 6 6 4 5 5 6 2 1 6 3 3 1 1 1 5 7 4 5 5 7 9 8 8 8 10 10 7 6 13 10 3 2 4 4 6 11 11 11 12 16 12 9 13 13 13
13 13 14 14 14 14 14 14 14 14 14 14 14 13 14 13 14 13 13 13 12 12 12 11 12 9 8 1 1 4 7 6 4 3 6 7 8 9 11 6 4 7 4 3 4 4 6 4 3 4 4 2 4 3 5 1 6 5 10 6 5 6 7 6 5 7 10 7 5 6 10 11 10 4 1 1 0 5 12 11 12 12 13 13 10 12 13 12
13 13 14 14 15 15 15 15 15 15 15 15 15 15 14 14 14 13 14 12 12 12 12 10 10 8 3 1 1 2 7 5 2 4 7 8 8 8 3 2 8 6 4 3 3 6 7 6 8 5 2 1 1 4 1 5 5 3 4 4 7 7 7 5 6 7 6 3 3 4 9 11 4 1 1 0 4 10 11 11 11 13 13 12 10 11 12 14
13 14 14 15 15 16 16 16 16 16 16 16 16 16 15 15 14 14 13 13 12 12 10 9 7 7 1 0 1 5 6 3 0 3 8 10 10 7 5 3 6 6 4 3 7 10 4 6 4 2 1 4 0 4 2 4 2 4 5 5 6 6 6 7 5 9 3 5 6 8 10 12 2 1 5 7 8 12 15 12 12 11 12 11 12 10 10 11
14 14 14 15 15 15 16 16 17 16 16 16 16 16 16 15 15 15 14 13 13 10 9 6 6 3 2 0 5 9 3 2 3 4 6 8 5 9 6 6 6 7 9 7 8 8 6 4 3 1 3 2 1 3 3 4 0 4 1 6 7 7 6 3 5 5 3 4 4 6 4 6 2 4 6 9 11 11 14 15 13 12 10 10 11 9 9 10
14 14 14 15 15 16 16 17 17 17 17 17 17 17 17 17 16 16 15 13 11 9 8 5 3 3 1 4 11 11 6 5 4 4 6 4 3 4 6 5 9 6 8 6 6 7 5 3 4 3 3 1 0 1 3 5 5 1 1 1 7 6 9 7 2 4 3 3 2 6 3 6 8 10 2 8 11 9 9 12 13 11 10 10 9 8 7 9
14 15 15 15 15 16 17 17 17 17 18 18 18 18 18 18 18 17 16 13 11 9 5 1 0 0 1 8 7 3 6 6 6 7 8 1 0 4 5 5 7 7 3 5 4 3 6 3 2 2 0 0 4 2 4 3 2 3 4 0 4 3 6 3 0 2 1 3 4 5 4 7 8 12 3 6 14 15 12 12 13 11 10 9 9 8 8 11
15 15 15 16 16 16 17 17 17 16 17 18 19 19 19 20 19 17 15 10 6 4 3 3 0 1 1 10 7 11 15 2 4 7 6 3 4 4 5 5 7 9 8 5 3 2 5 5 1 1 3 3 3 3 6 2 2 1 3 7 4 5 7 6 6 4 4 2 4 5 3 7 8 11 4 9 12 15 14 12 12 11 10 10 10 10 9 10
15 15 16 16 17 17 17 17 17 17 18 20 20 22 21 21 18 15 10 7 5 3 3 2 3 2 2 10 3 4 1 3 5 13 9 7 7 8 3 7 1 2 2 5 6 1 1 3 3 5 3 1 3 2 2 5 5 3 3 6 5 2 5 8 1 1 7 3 1 6 6 2 5 10 5 9 13 13 13 13 12 11 12 11 10 11 9 10
16 16 17 17 17 17 18 18 18 19 19 19 23 21 19 18 16 9 4 3 3 3 2 1 2 2 0 5 4 4 3 4 3 3 4 8 9 8 3 3 2 4 5 4 1 1 1 0 1 0 1 5 3 2 2 4 7 4 3 1 1 2 5 4 7 3 0 1 3 1 3 5 6 9 3 9 14 12 10 13 13 11 11 12 11 11 11 11
16 16 17 17 17 17 17 18 18 19 20 20 20 18 16 12 7 11 4 4 1 2 1 2 2 1 10 2 2 3 2 3 2 3 5 6 9 6 3 3 2 3 2 1 1 3 1 2 0 6 1 1 2 2 5 9 4 1 1 2 5 2 4 7 2 5 9 1 2 2 2 7 10 11 2 12 12 12 12 13 14 13 11 11 10 11 10 8
16 16 17 17 18 18 18 18 19 20 19 19 18 17 4 5 3 2 5 1 2 1 1 2 3 4 4 3 5 4 3 5 6 4 3 5 3 2 1 0 2 4 1 1 2 4 1 2 1 1 6 4 2 6 9 3 4 2 1 1 2 4 7 7 3 2 2 6 8 5 6 9 10 10 4 8 10 14 13 12 10 11 10 10 10 9 7 6
17 17 17 18 18 18 18 18 18 19 19 13 10 3 1 2 2 1 1 0 4 5 3 5 9 6 13 16 9 2 6 4 3 3 3 3 8 4 3 2 1 1 4 4 1 3 3 5 7 9 3 2 3 5 5 6 1 3 2 2 5 5 10 8 5 2 4 6 5 6 7 6 10 12 11 7 12 12 13 9 9 9 9 10 9 6 8 10
17 17 18 18 18 18 18 17 15 15 19 8 7 1 3 1 3 4 4 8 9 10 11 9 12 12 14 4 3 5 7 4 1 3 1 2 5 9 3 3 1 5 3 5 5 1 2 5 10 6 3 3 3 5 3 1 0 2 4 4 8 4 11 8 6 4 8 3 5 4 4 9 12 14 10 5 13 14 15 13 12 12 12 10 9 12 13 14
17 18 19 19 19 19 19 18 16 18 11 1 1 2 0 2 2 2 1 7 6 13 13 17 11 13 13 13 12 2 4 4 13 10 4 7 4 8 2 5 4 8 2 0 1 1 3 10 4 2 6 4 1 1 2 3 4 1 4 4 5 9 4 9 4 5 3 2 7 6 5 10 14 15 11 8 14 14 17 18 18 16 13 9 11 16 15 14
17 18 18 19 19 20 20 19 18 13 1 1 2 1 3 3 2 4 1 3 11 6 10 12 8 14 17 8 3 7 4 9 8 6 2 5 3 9 6 6 6 4 1 3 6 2 5 7 8 7 2 3 3 1 1 1 0 3 1 2 9 2 3 8 2 3 3 1 6 8 8 11 13 9 10 7 13 7 15 19 18 15 17 15 16 17 17 17
17 18 18 19 20 21 20 20 15 3 0 2 3 5 4 1 4 2 3 3 7 5 7 11 12 7 16 7 5 10 10 4 7 10 3 5 8 3 4 7 5 4 7 5 7 8 10 6 2 5 5 4 6 5 3 3 7 3 5 5 6 3 5 7 6 3 5 5 4 6 5 8 6 7 8 4 6 8 12 13 9 3 8 10 12 12 13 15
17 18 18 19 19 23 22 18 3 1 4 4 4 6 6 4 3 3 1 4 3 7 4 4 5 7 5 4 7 10 5 1 9 5 3 9 5 4 6 2 4 7 6 7 6 8 9 9 3 5 4 4 4 5 6 5 7 3 6 11 8 7 8 7 7 4 5 7 1 2 5 6 6 7 11 0 2 7 9 12 9 9 12 14 14 12 12 12
17 17 17 18 20 22 21 2 2 5 7 3 3 3 3 3 3 1 2 2 6 6 3 3 4 3 5 2 5 5 6 4 9 9 4 7 7 6 2 2 3 7 6 4 6 4 10 2 6 6 5 5 5 6 5 8 7 4 7 10 13 12 10 8 8 0 2 4 2 2 1 7 8 9 6 3 5 6 4 11 9 9 12 14 14 12 12 13
17 16 16 17 17 19 8 1 1 8 0 1 1 5 7 5 4 0 2 3 3 3 1 0 2 1 3 4 9 7 2 8 3 7 6 4 8 3 6 5 0 1 3 2 1 6 2 4 4 3 4 5 4 6 5 11 6 5 6 9 8 8 7 9 7 6 7 2 2 1 4 3 8 8 1 5 5 5 6 5 7 7 11 14 12 12 11 12
17 16 15 15 15 11 3 6 8 4 5 2 6 7 9 5 3 2 2 2 1 1 0 1 2 1 1 8 11 9 3 3 3 5 10 5 5 1 6 6 8 9 4 5 9 2 4 2 5 4 4 4 7 10 4 9 7 8 4 9 7 8 9 7 6 7 3 0 10 3 0 0 3 7 3 2 8 4 5 7 7 10 13 13 13 11 11 12
17 16 15 14 15 15 5 4 2 6 3 4 7 8 7 5 2 3 3 1 4 0 3 3 5 2 2 3 6 6 2 1 1 0 5 2 7 6 6 8 6 6 4 10 10 2 2 5 6 7 6 6 8 7 8 13 5 13 7 3 3 2 3 4 5 4 1 0 8 8 2 2 7 7 7 6 6 3 4 6 9 12 13 12 13 11 12 11
17 16 15 15 11 3 1 1 8 8 5 8 8 9 5 2 3 1 1 3 2 1 2 1 2 9 3 4 4 5 3 3 0 1 5 6 5 1 1 3 4 2 3 1 5 8 4 2 7 5 5 7 6 10 9 13 18 2 4 2 3 2 1 1 2 3 2 1 8 7 4 4 4 3 3 4 2 3 2 4 6 11 11 11 12 13 14 11
18 17 15 12 5 2 2 4 9 7 6 4 7 5 2 7 2 2 1 5 2 2 4 5 7 9 4 4 5 5 4 2 2 5 2 2 2 2 1 2 3 3 2 1 4 6 4 2 1 3 7 4 5 6 4 13 10 3 1 3 1 5 5 1 2 3 2 5 9 8 5 8 5 4 4 2 7 7 12 13 14 15 13 12 13 11 12 11
19 19 17 9 7 4 4 5 1 1 4 6 4 4 5 1 4 3 5 4 1 5 4 8 5 6 12 4 5 2 4 0 2 3 7 5 5 8 4 6 5 2 3 3 6 4 7 6 3 5 4 10 4 5 7 1 4 6 3 3 4 3 2 2 2 2 3 6 5 2 3 3 4 3 5 8 7 6 7 10 15 16 14 14 13 13 11 10
19 21 21 11 8 8 10 12 3 6 7 5 3 4 3 4 2 5 3 4 1 3 4 4 7 13 10 8 2 4 5 5 2 1 2 2 8 9 6 5 5 6 3 2 3 0 7 3 2 6 4 5 5 5 1 0 1 8 7 5 4 1 0 2 3 1 4 6 6 1 1 1 1 2 5 9 8 7 7 2 8 15 14 13 11 11 10 8
21 20 9 3 6 10 7 2 3 2 3 3 2 5 6 2 3 4 1 1 3 3 5 5 16 13 4 2 5 0 2 0 2 1 1 1 3 5 5 2 4 1 3 1 2 5 1 6 6 4 4 4 6 10 10 8 7 9 3 10 8 7 4 2 3 4 6 7 2 4 2 2 1 3 7 6 4 4 6 9 9 9 10 10 10 9 9 9
22 13 4 3 4 8 10 5 1 2 1 3 7 5 4 5 2 1 1 4 2 4 8 11 7 3 5 3 4 4 0 1 2 1 2 5 4 3 6 7 4 4 2 3 2 2 5 6 7 5 4 1 2 4 4 4 4 1 3 6 7 4 6 4 4 3 2 1 1 4 0 1 2 1 6 6 6 9 9 9 11 11 9 10 10 10 9 8
12 3 1 2 2 3 8 6 3 1 2 6 4 1 3 4 0 1 0 1 2 4 11 11 1 2 2 5 4 5 6 1 1 1 1 5 4 4 1 1 6 10 6 7 4 2 1 3 3 7 1 5 8 2 3 5 3 2 3 3 6 6 8 3 1 0 0 4 0 0 0 1 5 3 9 9 8 8 8 8 9 7 7 9 10 10 9 8
3 5 2 1 2 3 7 7 6 4 6 6 4 1 4 2 6 1 2 4 4 4 3 6 4 3 3 4 5 8 6 4 1 1 2 1 2 2 3 1 2 5 6 6 2 3 2 6 5 2 10 7 3 4 1 2 4 6 2 6 2 4 5 6 5 2 1 3 2 2 0 2 2 2 7 8 8 6 5 4 5 7 5 6 5 7 8 9
6 3 2 3 2 7 8 8 7 3 4 4 1 4 2 1 1 1 2 4 3 2 0 0 4 1 2 4 6 4 4 1 2 1 2 1 1 0 0 2 2 2 4 3 4 3 2 4 6 5 6 8 6 1 3 1 1 5 4 3 2 1 0 3 4 0 0 1 0 2 1 1 2 3 3 2 3 0 5 7 4 5 4 3 2 4 5 6
2 2 2 1 4 9 8 8 4 4 3 4 1 0 2 3 2 1 4 3 2 1 1 3 1 2 2 5 4 2 2 1 1 1 2 1 1 1 2 1 0 6 5 6 4 0 1 1 6 4 1 3 2 3 2 5 4 1 2 2 1 4 3 3 4 4 6 2 2 3 2 2 2 2 1 4 2 3 5 2 5 3 7 6 9 9 8 6
2 2 1 1 6 7 8 3 4 4 3 1 2 2 2 1 3 4 6 1 2 0 3 1 2 3 4 6 1 1 3 1 1 2 1 1 1 1 2 2 2 0 4 3 2 1 0 1 2 5 5 3 3 1 1 3 1 3 2 2 0 2 2 3 1 1 3 5 5 5 1 4 4 2 2 4 1 3 6 7 6 3 3 8 9 6 7 10
1 2 1 1 6 8 4 5 3 0 0 1 1 2 2 2 2 3 6 5 2 4 5 3 2 1 3 3 2 2 1 2 0 1 1 1 3 1 3 5 3 2 2 3 2 0 1 1 2 4 5 3 4 2 2 7 6 3 2 2 1 1 4 2 4 1 2 3 3 4 4 4 4 2 1 2 2 2 1 5 4 4 4 6 7 9 8 6
2 1 1 1 6 6 6 2 1 0 1 1 1 1 2 4 2 2 2 3 3 2 2 1 2 3 1 2 2 2 1 2 2 0 1 2 1 1 3 3 3 2 5 3 2 1 2 2 2 2 2 2 2 2 3 3 14 8 8 3 1 1 3 4 2 2 2 1 4 3 5 4 2 2 4 6 7 9 10 4 5 5 6 7 8 9 8 8
2 1 3 4 1 5 3 1 2 2 1 3 3 2 2 2 2 2 2 1 2 1 1 0 2 1 2 0 2 1 1 0 2 2 1 1 2 1 6 2 2 5 3 1 1 1 4 1 1 4 5 3 4 2 4 3 1 7 4 2 5 3 2 4 3 4 6 1 1 1 1 2 1 3 3 6 8 10 8 9 8 5 8 8 7 8 7 10
1 0 3 1 3 2 2 2 1 2 2 4 1 3 3 2 1 3 1 2 0 2 0 1 4 1 2 1 0 2 2 1 2 4 2 2 2 5 5 6 5 2 2 2 3 3 1 3 3 1 1 4 7 7 4 5 4 4 2 1 0 1 2 3 2 1 3 5 6 8 5 4 3 1 2 5 6 11 9 10 8 7 8 9 7 7 6 8
1 1 0 4 5 2 2 3 3 1 1 1 1 5 6 3 2 3 2 2 2 1 1 1 2 2 1 1 1 1 2 2 1 3 1 2 2 3 6 5 5 3 2 2 3 2 5 2 3 4 4 4 2 2 2 1 1 1 2 1 3 8 6 3 1 1 2 1 3 3 2 5 6 6 5 5 8 8 9 10 9 9 7 6 8 9 10 10
0 3 3 2 5 4 2 1 3 2 0 0 2 2 0 3 4 3 2 3 1 2 1 2 3 0 1 3 3 5 4 4 3 1 5 4 4 3 4 6 6 2 3 11 5 3 2 2 3 2 6 6 3 4 4 1 1 1 1 4 2 2 3 7 4 2 2 1 2 3 5 8 9 9 9 7 9 12 12 9 11 10 8 8 10 9 9 9
1 3 1 1 3 5 0 3 0 2 1 2 1 0 2 2 3 4 2 1 4 4 1 3 3 2 2 2 0 1 2 3 6 2 3 3 3 2 7 4 6 8 5 4 5 4 3 4 5 2 4 1 2 1 3 1 2 1 2 3 3 4 3 7 5 1 1 6 3 1 4 13 11 10 9 10 9 10 9 9 9 9 7 8 10 11 10 10
2 1 2 1 3 2 1 2 0 1 0 1 0 0 1 2 3 2 4 1 2 3 1 2 6 4 2 1 1 1 3 2 3 1 4 4 4 7 4 7 6 7 5 2 4 4 3 2 2 1 3 6 8 5 3 6 5 3 6 6 7 4 6 5 0 1 3 1 4 4 3 5 8 8 8 8 8 9 9 10 7 8 9 10 12 13 12 11
2 0 0 1 1 2 3 1 2 1 1 0 0 1 1 1 2 1 0 3 4 3 3 1 4 6 4 4 2 0 0 1 0 2 2 4 3 4 5 3 3 7 6 3 4 2 5 1 1 1 3 9 10 9 5 9 3 6 8 7 6 6 5 6 4 1 4 1 4 6 6 6 5 7 9 8 10 11 9 8 7 7 9 10 11 12 11 9
1 1 0 4 4 1 1 1 1 3 1 3 0 1 0 1 2 3 2 1 1 2 1 2 4 5 2 3 2 1 1 1 0 0 0 3 6 3 1 1 3 3 3 2 1 2 2 1 2 1 3 4 7 5 6 5 4 4 6 10 11 8 5 5 3 3 7 9 7 8 9 5 5 6 9 10 12 10 9 8 8 7 7 10 11 10 12 14
1 1 2 3 2 3 2 2 1 1 1 4 3 2 2 2 1 1 3 1 1 1 1 1 2 4 0 2 1 1 4 3 4 6 4 2 0 2 2 6 1 6 4 1 2 1 4 0 1 1 3 2 5 5 2 2 4 6 6 12 11 10 4 4 2 3 1 8 6 8 5 3 2 6 9 11 12 12 11 8 6 5 5 7 11 11 10 9
0 0 2 3 3 4 2 1 2 2 2 2 1 2 1 3 3 2 2 3 1 2 2 2 2 0 4 5 4 3 4 5 7 5 4 4 5 6 6 6 4 3 1 2 0 3 2 4 2 1 4 1 2 3 3 3 3 2 5 8 8 5 4 3 2 5 4 3 12 8 5 2 4 4 12 8 12 12 10 7 6 6 6 5 10 10 8 7
Wind_Direction
346 345 345 344 344 342 342 342 341 341 340 339 337 335 333 334 333 330 328 325 322 320 320 319 319 317 315 317 318 321 332 320 306 292 236 243 212 209 180 223 190 196 205 50 32 94 82 93 161 284 91 118 228 103 225 121 157 81 141 134 260 228 238 218 198 182 228 296 309 325 341 359 330 346 319 29 41 67 64 53 15 40 53 89 105 112 132 134
344 344 345 343 342 342 340 341 341 339 339 337 336 333 333 332 333 332 331 328 325 321 320 319 318 315 316 316 321 326 337 306 289 269 236 226 181 197 199 208 117 162 137 258 171 144 131 185 212 138 131 154 276 167 139 246 146 147 163 129 226 210 234 173 213 249 326 287 300 298 307 41 295 288 294 68 6 24 68 49 67 91 83 95 107 129 138 140
343 344 342 342 340 340 339 339 337 337 336 335 332 332 331 330 332 332 334 332 328 326 321 320 317 318 318 321 317 334 337 305 271 267 257 238 226 192 199 167 122 138 154 163 192 160 158 187 166 119 158 109 294 176 178 251 147 216 132 217 243 200 254 262 285 290 279 284 293 300 302 360 287 277 342 118 114 68 128 129 101 119 128 130 134 143 143 143
343 340 341 340 339 338 339 337 335 335 334 333 330 331 329 330 330 333 334 332 330 327 326 322 320 321 320 314 323 331 333 284 297 244 267 253 200 190 196 178 158 158 122 124 155 155 144 110 134 133 111 155 280 159 181 241 146 262 146 218 235 217 264 268 212 245 264 265 273 291 305 319 311 260 119 151 89 300 266 188 153 161 149 145 152 152 148 147
341 340 339 339 338 337 338 335 334 333 332 329 329 328 329 327 328 328 329 329 330 328 323 320 319 317 319 316 323 2 314 19 268 272 271 356 172 172 185 170 172 168 170 122 104 96 119 127 137 163 107 197 310 82 239 242 208 105 213 238 246 285 274 268 269 266 261 274 290 288 315 278 330 68 141 160 142 220 201 212 199 156 153 151 159 159 153 151
340 340 339 338 338 337 334 334 333 332 330 328 328 327 326 326 325 325 324 325 327 327 323 320 318 321 317 321 320 256 33 323 318 291 357 27 130 159 162 155 168 154 126 123 124 139 116 162 109 150 159 128 206 189 270 202 161 258 285 244 227 225 246 288 291 279 285 294 292 300 266 307 3 227 214 195 188 245 214 154 169 162 163 157 148 152 154 157
341 339 339 337 335 334 334 331 332 330 328 328 325 325 324 324 322 322 322 323 322 324 322 320 319 318 321 325 291 73 142 271 309 251 1 41 130 148 149 154 147 143 129 110 130 138 174 129 111 168 119 152 281 192 269 277 161 199 250 272 279 218 237 263 272 278 282 270 271 263 345 311 290 262 218 218 256 86 111 128 141 139 142 148 152 161 158 159
339 339 337 336 335 333 333 332 330 328 328 324 323 321 321 319 319 318 321 319 319 318 323 320 319 320 331 348 32 325 88 250 251 301 79 86 114 138 133 116 135 145 140 167 159 159 142 142 167 155 122 148 221 155 257 261 216 222 259 265 264 257 247 255 259 274 284 278 267 303 292 270 259 216 140 244 265 147 119 126 138 143 152 158 157 156 155 153
339 337 336 335 332 332 331 330 328 326 323 322 318 319 317 316 314 316 314 316 316 316 318 319 317 320 329 70 98 349 269 234 263 1 85 98 121 122 128 135 163 144 162 142 173 153 134 222 174 177 213 199 243 249 257 231 305 213 234 252 273 275 281 273 297 268 259 270 267 287 273 264 261 186 72 287 13 121 122 129 139 145 150 159 165 163 160 157
338 336 334 332 332 330 329 327 324 323 322 319 319 317 316 315 313 312 312 312 313 314 316 320 312 326 357 54 40 19 262 220 23 81 95 107 113 127 175 87 152 142 133 197 136 153 187 196 174 207 114 243 230 234 162 143 236 181 236 232 246 262 273 271 235 268 264 238 250 240 266 275 307 137 263 201 139 129 127 140 148 150 160 163 165 168 166 158
336 335 333 332 330 329 327 325 324 323 322 320 319 318 316 313 312 308 309 308 310 312 313 312 322 322 358 311 130 235 252 65 258 103 110 112 114 130 207 160 172 162 149 159 195 194 183 146 163 134 96 224 156 276 181 222 216 280 263 316 295 273 260 261 286 272 292 293 219 213 253 261 300 224 210 172 154 145 142 152 157 160 163 169 172 170 169 164
335 333 332 329 328 326 325 324 323 323 320 320 317 313 312 310 308 307 303 303 302 305 310 310 315 314 279 87 200 227 262 117 106 106 113 116 139 186 184 171 197 188 170 184 218 212 191 157 131 91 192 42 294 315 276 222 332 269 339 308 295 320 307 245 219 237 164 257 217 191 263 306 323 218 238 158 150 153 150 156 164 168 171 171 176 172 175 172
332 331 330 329 328 327 325 323 323 321 320 317 316 312 311 309 307 302 300 297 294 294 301 304 293 255 330 301 227 236 260 269 275 291 304 273 250 208 201 168 196 213 206 186 209 213 173 166 120 175 253 4 234 207 267 330 287 320 285 232 326 334 308 271 230 256 210 260 184 114 266 265 266 247 280 158 146 136 145 161 170 172 171 175 175 176 174 177
332 330 329 329 328 327 325 324 323 321 320 317 314 312 311 307 302 299 296 289 286 285 302 215 60 268 222 245 274 244 225 239 289 307 273 254 268 260 178 209 192 212 247 250 270 142 156 201 149 209 21 194 275 308 338 326 17 279 265 18 258 335 265 296 106 326 188 259 137 168 210 276 270 272 224 176 157 154 166 173 176 173 175 174 178 174 178 188
331 330 329 329 328 327 326 324 323 321 318 315 314 314 311 305 299 295 292 292 270 247 197 195 41 209 37 269 263 270 254 203 230 235 219 171 192 304 240 176 198 203 212 221 259 162 138 128 118 286 264 226 255 325 302 343 354 330 1 285 330 187 282 312 290 222 227 300 131 139 242 229 250 261 177 184 171 164 166 176 180 177 179 181 177 177 184 189
329 329 329 329 329 329 327 325 323 321 319 319 318 315 312 302 295 292 285 267 240 188 82 68 199 179 342 298 264 273 211 185 250 218 210 178 185 203 198 170 173 226 191 259 232 289 116 134 182 201 251 355 175 155 348 358 327 351 187 263 276 316 270 346 312 257 235 228 336 176 220 317 304 256 184 186 173 177 170 179 182 180 185 185 179 180 182 182
331 329 330 330 330 330 329 327 325 324 324 322 321 316 310 303 298 267 280 119 151 122 159 105 121 184 331 232 313 312 266 236 198 67 153 205 188 202 119 112 193 210 194 274 355 203 271 120 285 306 306 219 163 111 241 311 272 285 14 220 223 259 308 298 303 319 318 186 280 310 209 231 247 284 133 194 179 176 181 186 186 182 187 189 184 184 184 187
330 330 329 330 330 330 329 327 326 325 326 325 324 314 312 318 71 109 83 101 116 145 221 264 211 324 269 3 267 248 315 299 6 175 184 196 194 203 161 186 238 147 130 242 126 174 185 213 192 217 343 150 114 105 146 232 197 18 304 338 316 283 234 245 302 268 4 42 228 306 300 273 270 269 233 192 181 184 192 189 189 188 186 187 188 187 187 182
329 329 330 330 331 330 329 327 327 327 326 324 319 303 319 28 46 96 105 148 105 38 351 229 125 160 193 201 261 328 284 276 293 175 220 141 229 225 254 208 108 133 204 142 284 156 290 239 17 9 241 203 211 165 199 173 128 143 171 201 201 301 293 280 245 281 359 326 317 285 269 281 283 274 248 168 189 191 203 200 192 191 184 181 186 185 171 134
329 330 330 331 330 329 328 326 327 326 328 326 337 340 68 12 8 358 354 312 228 203 231 181 210 264 302 292 286 275 282 301 301 268 146 168 117 181 242 177 294 96 117 190 250 203 123 187 214 221 216 160 199 184 205 213 257 303 352 252 255 268 282 271 272 239 323 325 266 265 271 267 273 267 267 164 191 194 203 201 198 191 182 181 181 150 127 123
328 330 330 330 329 328 325 326 324 324 325 319 311 338 61 327 24 315 301 242 223 231 243 248 196 224 239 271 309 31 9 314 201 293 214 162 113 122 233 161 178 238 209 187 170 261 114 216 240 217 163 169 204 201 181 291 68 241 280 295 291 260 267 278 292 315 288 209 285 280 296 276 263 269 266 137 177 192 199 204 203 191 189 181 141 125 120 122
328 328 330 329 328 326 324 324 324 321 329 267 306 53 253 218 235 228 79 305 289 221 226 236 231 250 251 245 255 345 4 295 308 285 288 153 175 148 234 176 173 207 272 111 347 226 200 222 240 152 199 190 245 167 161 195 255 243 218 268 301 270 282 286 273 249 270 119 266 291 287 277 274 270 268 162 181 192 193 195 201 191 183 148 138 128 130 131
327 328 329 329 327 325 324 323 321 332 98 119 53 176 229 221 325 317 313 288 272 224 213 225 233 238 261 246 220 143 210 231 245 284 260 135 138 191 150 174 186 194 203 149 190 210 267 266 242 231 131 171 272 251 228 228 121 217 265 249 249 304 342 304 287 350 327 357 288 294 292 282 279 289 267 233 178 191 197 197 202 187 179 162 155 144 142 140
326 329 330 330 327 326 323 323 321 62 131 253 265 222 238 311 299 309 124 238 286 285 193 219 202 211 239 215 187 166 195 221 163 259 195 138 161 163 141 177 167 166 209 186 193 201 226 242 178 159 164 167 228 246 214 226 263 220 194 221 251 283 244 202 278 334 304 288 214 278 314 299 300 313 313 23 163 160 197 205 204 90 76 109 111 125 147 146
325 329 330 328 329 326 323 322 43 334 307 277 232 246 255 260 276 196 119 318 306 283 238 276 164 242 248 102 142 163 220 273 214 211 191 160 160 106 216 162 124 205 202 182 197 225 258 251 104 118 166 177 200 261 231 179 241 286 224 206 220 226 251 261 263 342 357 310 307 143 9 299 278 288 262 352 87 157 188 180 179 133 135 123 128 140 144 140
324 327 330 328 330 333 320 28 321 318 318 258 227 269 301 332 331 222 110 80 302 275 323 304 135 273 131 189 142 143 100 239 201 210 169 189 172 163 114 200 154 216 206 160 190 206 224 184 161 198 174 196 192 219 224 159 218 238 265 193 209 221 225 250 274 162 279 241 276 75 77 276 311 316 309 334 139 166 160 183 147 136 137 139 142 149 149 144
322 324 328 329 333 340 9 285 8 311 4 296 311 335 323 330 336 95 51 339 349 248 154 193 99 234 195 176 148 138 94 264 164 192 191 173 174 138 146 212 138 100 157 162 36 262 172 180 188 169 169 182 201 256 215 160 163 243 229 165 197 208 223 235 233 189 236 270 284 62 134 200 304 294 294 360 94 133 146 109 134 135 142 143 145 151 144 141
319 323 325 328 328 338 249 294 323 304 234 254 350 330 319 329 319 70 78 4 310 247 356 236 211 196 238 169 168 172 199 130 108 231 187 184 137 178 191 189 176 196 182 107 214 258 166 211 185 199 184 170 214 224 182 150 154 230 201 174 197 207 220 223 189 207 223 28 286 344 355 55 259 266 330 48 85 62 86 144 141 134 139 140 145 148 140 135
316 320 322 323 322 312 281 222 229 251 242 333 323 318 324 330 86 103 107 91 254 349 256 68 262 98 29 128 204 234 348 192 129 277 146 129 191 127 203 205 197 197 193 162 223 266 275 194 196 180 154 214 233 239 153 169 187 260 237 149 203 199 208 176 188 179 287 207 273 276 164 213 283 277 356 352 60 66 179 154 135 144 146 145 147 142 136 140
314 317 318 320 319 333 21 210 231 240 307 316 313 306 323 60 36 42 354 256 295 38 4 269 40 337 19 137 235 264 287 306 88 55 147 167 216 119 262 135 165 139 223 309 241 232 239 11 157 126 193 216 229 240 179 181 210 82 101 183 235 59 13 31 87 112 65 253 253 245 201 182 267 287 83 35 287 216 216 88 131 141 142 149 153 147 152 148
313 312 312 312 289 271 314 276 254 251 255 298 304 311 53 38 117 104 185 232 314 287 335 12 3 342 1 292 284 273 281 306 359 122 83 54 141 158 21 42 53 55 35 351 290 296 311 273 238 230 202 223 196 270 185 193 218 187 217 179 335 295 9 44 344 34 137 268 263 253 199 165 187 289 338 286 268 228 180 161 157 160 160 156 159 151 150 155
312 308 303 295 249 237 195 232 224 76 351 329 356 45 74 172 1 163 213 328 12 318 35 325 338 343 308 299 213 224 200 167 184 144 143 169 157 180 221 188 169 192 286 222 250 336 288 250 225 267 202 203 228 241 301 73 153 152 118 61 152 263 37 274 9 255 209 213 245 24 139 114 214 201 282 325 296 273 245 179 164 162 158 154 155 153 152 157
312 308 303 283 245 214 235 245 318 333 338 340 60 51 66 104 216 261 301 338 239 18 308 332 320 319 308 320 263 227 196 205 277 6 119 144 151 205 205 174 200 153 191 248 199 268 275 286 322 277 323 208 154 208 262 4 182 134 160 150 126 175 140 236 274 215 304 282 258 312 260 222 235 290 338 322 302 256 218 200 167 158 154 151 146 147 157 164
312 310 299 218 205 214 226 235 234 325 335 24 68 40 59 90 239 237 253 250 252 327 341 351 324 320 343 337 276 136 117 143 112 182 101 149 146 194 249 259 149 235 214 147 179 190 337 336 289 184 265 241 165 191 184 183 169 199 142 152 176 145 159 216 220 226 219 209 287 294 117 245 120 268 333 315 314 40 96 119 139 128 133 127 138 141 153 165
311 297 252 279 236 227 222 208 150 204 46 71 58 85 139 237 222 202 269 318 307 329 336 323 311 330 309 347 308 333 100 235 14 105 103 130 216 178 186 219 226 115 122 139 263 76 198 206 253 216 236 43 214 231 163 116 132 214 159 85 89 224 141 206 202 176 246 259 13 358 312 210 150 244 357 358 48 76 100 115 124 139 146 142 147 157 159 165
319 299 162 261 233 248 178 185 158 169 93 71 81 77 193 195 290 121 343 247 324 346 318 329 316 356 303 341 306 3 330 110 259 62 292 156 193 198 256 245 197 185 147 172 203 189 25 264 265 311 240 199 247 162 228 136 213 252 114 183 207 172 123 83 24 28 93 40 201 230 28 310 311 339 15 6 45 77 101 116 128 133 154 155 159 163 162 157
334 330 45 271 257 141 146 149 155 124 67 96 89 226 208 280 203 177 315 7 278 288 337 35 310 349 351 336 327 332 321 46 330 135 245 349 336 225 164 211 169 183 188 138 298 195 168 256 289 23 309 294 222 218 214 299 149 96 143 243 118 88 115 132 205 347 56 174 246 54 116 299 25 222 331 346 12 23 54 111 126 141 152 176 157 149 149 151
332 333 260 276 222 125 138 147 132 59 80 80 145 226 199 335 258 332 274 325 338 335 347 167 271 91 310 16 308 304 318 84 267 99 194 335 212 237 352 133 353 112 195 148 141 273 146 320 295 276 251 270 339 72 345 327 9 167 196 191 122 269 264 320 96 100 139 246 248 8 306 251 168 239 277 289 345 24 26 334 108 117 110 48 59 110 126 137
285 349 53 22 127 136 142 149 74 74 58 58 255 345 262 227 260 267 273 288 223 274 316 248 187 294 15 320 244 288 300 300 300 190 100 255 129 127 91 181 60 30 27 115 93 251 33 195 297 289 165 309 4 60 229 295 322 35 120 65 310 107 160 147 207 179 115 193 77 269 52 227 222 217 209 233 286 247 147 228 351 74 93 48 3 13 6 17
56 37 338 342 131 125 145 93 56 45 68 89 217 230 217 264 268 264 275 224 290 304 245 257 218 270 300 238 232 289 295 325 157 255 119 263 158 277 162 351 167 20 115 59 114 134 317 89 241 282 302 343 328 340 201 179 140 349 157 300 52 13 203 111 65 99 172 162 175 159 259 277 263 222 188 232 207 236 191 161 163 102 90 123 110 62 28 31
276 103 265 152 135 139 98 48 48 52 132 251 159 229 282 239 302 285 275 259 244 231 211 261 264 229 245 345 339 263 294 324 213 236 194 258 181 252 229 171 164 161 323 353 55 68 43 22 225 309 351 329 246 278 202 127 118 128 154 88 221 115 123 171 256 30 75 99 188 137 227 271 269 319 10 355 1 344 253 170 152 132 128 125 104 110 116 112
70 54 310 99 159 122 86 76 300 207 118 222 261 230 285 310 284 275 298 289 211 271 261 216 261 220 254 259 226 312 336 337 324 317 299 160 269 142 303 11 156 162 136 220 192 234 146 156 95 304 234 239 246 325 9 333 103 104 100 356 146 131 102 95 129 250 35 61 117 138 115 278 248 31 65 46 39 29 9 17 98 70 84 83 79 89 87 85
60 144 269 152 185 95 72 46 305 32 251 237 289 291 273 286 230 276 323 300 347 228 336 312 249 13 273 213 315 301 346 195 332 287 246 272 278 234 292 332 98 52 77 327 55 230 107 73 25 289 312 298 302 325 347 306 331 63 23 71 56 352 249 187 171 179 139 168 55 10 96 240 328 98 114 99 75 58 47 25 15 39 63 59 73 86 75 79
111 283 9 41 69 97 81 240 298 289 271 309 21 263 270 244 329 333 292 300 176 331 228 260 336 109 260 345 310 331 319 70 57 40 350 344 48 320 31 19 8 45 65 225 138 262 85 309 123 46 20 338 332 339 352 340 33 91 106 334 105 198 117 202 105 30 107 217 171 134 209 242 157 122 75 75 77 92 70 43 30 28 39 62 33 54 72 85
110 307 266 303 6 72 228 182 158 198 280 287 345 343 343 339 252 241 227 285 290 243 29 312 222 287 330 306 328 266 328 105 260 16 157 334 333 335 358 34 57 86 53 208 106 95 98 211 118 193 164 180 231 259 266 281 290 301 125 15 21 52 20 24 265 52 139 271 111 131 199 253 139 142 110 101 113 104 104 92 70 65 43 49 63 54 57 55
132 123 310 345 9 22 91 101 127 144 152 293 23 287 249 319 318 307 162 252 359 326 131 290 307 44 335 33 9 5 344 346 78 321 28 343 326 359 358 347 56 97 93 65 44 78 121 84 72 149 159 180 201 218 239 149 9 55 287 78 22 56 56 97 115 75 190 228 154 229 172 146 151 162 144 135 129 127 115 105 110 101 91 81 80 73 64 61
170 95 156 160 343 32 266 353 106 77 238 150 94 268 332 314 264 314 325 52 344 354 335 58 346 32 337 59 283 355 340 323 356 55 13 351 290 291 317 17 45 18 18 44 1 87 61 59 355 73 59 44 236 212 286 152 156 358 5 354 30 60 66 73 68 336 195 96 253 291 196 146 164 157 147 140 131 110 101 109 106 100 104 104 100 92 80 69
71 250 116 184 128 232 47 314 109 187 347 102 244 87 289 342 355 15 320 25 323 354 78 328 19 27 325 292 108 75 330 342 8 32 326 20 325 341 11 16 61 341 25 50 13 96 123 106 293 91 36 36 22 353 50 63 52 66 39 21 20 347 63 87 162 195 124 128 209 192 182 150 144 138 131 130 119 111 112 112 104 116 114 108 102 93 84 77
130 193 173 307 174 254 166 193 102 102 40 49 247 12 293 20 332 263 214 317 10 346 46 61 327 334 340 359 102 170 343 124 292 326 37 360 329 336 13 336 1 24 36 27 22 85 89 59 277 130 82 37 13 0 25 86 55 40 23 14 8 48 84 111 101 155 147 197 241 127 106 81 55 112 127 118 103 105 101 98 105 108 109 105 98 92 84 78
353 91 297 7 82 126 271 54 89 57 70 322 18 281 188 313 314 321 333 88 351 313 15 87 306 315 8 23 64 105 229 182 154 277 257 58 331 20 351 221 283 317 48 37 9 316 98 239 114 313 66 24 8 10 42 47 79 70 14 19 14 4 63 53 92 120 93 75 80 101 102 76 17 56 82 95 105 101 94 96 94 90 103 109 106 102 98 94
214 160 150 113 67 324 353 28 25 65 41 341 52 285 6 310 280 291 265 191 160 244 344 311 273 309 341 39 67 254 233 201 198 201 207 184 208 261 105 285 16 331 344 38 20 329 73 105 53 85 77 354 355 16 79 46 52 79 30 7 0 356 25 5 11 313 262 139 113 100 109 133 66 79 95 108 108 104 105 92 73 69 84 109 101 95 91 87
29 300 80 108 86 311 72 23 18 57 8 232 193 260 161 303 318 5 350 285 220 206 200 242 225 106 316 0 322 263 235 230 247 225 185 213 214 229 206 232 269 242 271 149 247 82 107 128 78 58 79 60 308 358 26 356 20 5 352 336 327 294 255 292 325 10 358 151 132 162 195 86 119 102 101 86 96 98 85 59 68 62 49 74 98 95 83 81